Location: Central Falls
(41.8900°N, 71.3929°W)
Time: 14:56:04
(UTC+00:00)

Vanguard 1 - Pass Details

Date: 08 December 2023
Orbit: 653 x 3826 km, 34.3° (Epoch: 24 February)

Event Time Altitude Azimuth Distance (km) Brightness Sun altitude
Rises 00:12:02 0° 261° (W) 5,949 15.2 -32.3°
Reaches altitude 10° 00:15:19 10° 259° (W) 5,278 14.6 -32.9°
Maximum altitude 00:32:38 69° 181° (S) 3,695 12.7 -36.1°
Enters shadow 00:40:29 50° 121° (ESE) 4,380 12.8 -37.5°
Drops below altitude 10° 00:56:02 10° 104° (ESE) 6,820 - -40.4°
Sets 01:01:02 0° 103° (ESE) 7,678 - -41.4°
